Home > Weather > Jersey City > Past weeks

Flag for USA Weather for the Past 2 Weeks in Jersey City, New Jersey, USA

Now
49 °F

Overcast.


Feels Like: 44 °F
Forecast: 46 / 55 °F
Wind: 13 mph from Northeast

Location: Newark International Airport

Current Time: May 5, 2016 at 1:27:41 AM

Latest Report: May 5, 2016 at 12:51 AM


Visibility: 10 mi

Pressure: 29.73 "Hg

Humidity: 80%

Dew Point: 43 °F

Location of Jersey CityLocation

Historic Weather in Jersey City — Graph

°F

Jersey City Temperature Yesterday

Maximum temperature yesterday: 58 °F (at 11:51 AM)
Minimum temperature yesterday: 46 °F (at 12:51 AM)
Average temperature yesterday: 51 °F

High & Low Weather Summary for the Past Weeks

 TemperatureHumidityPressure
High82 °F (Apr 22, 2:51 PM)100% (Apr 23, 4:51 AM)30.26 "Hg (Apr 23, 4:51 AM)
Low43 °F (May 1, 8:51 PM)10% (Apr 20, 3:51 PM)29.62 "Hg (Apr 26, 2:51 PM)
Average56 °F62%29.98 "Hg
* Reported Apr 19 11:51 PM — May 4 11:51 PM, Jersey City, Weather by CustomWeather, © 2016

Note: Actual official high and low records may vary slightly from our data, if they occured in-between our weather recording intervals... More about our weather records

Advertising

Jersey City Weather History for the Previous 24 Hours

Scroll right to see more
 ConditionsComfort  
Time TempWeatherWind HumidityBarometerVisibility
11:51 PM
Wed, May 4
50 °FMostly cloudy.14 mph77%29.73 "Hg10 mi
10:51 PM50 °FMostly cloudy.9 mph77%29.74 "Hg10 mi
9:51 PM50 °FMostly cloudy.10 mph89%29.75 "Hg10 mi
8:51 PM51 °FLow clouds.12 mph86%29.75 "Hg10 mi
7:51 PM50 °FFog.13 mph93%29.74 "Hg3 mi
6:51 PM50 °FLight rain. Fog.9 mph93%29.73 "Hg1 mi
5:51 PM51 °FCloudy.9 mph83%29.72 "Hg10 mi
4:51 PM51 °FLight rain. Low clouds.9 mph80%29.72 "Hg10 mi
3:51 PM50 °FLight rain. More clouds than sun.12 mph86%29.72 "Hg10 mi
2:51 PM50 °FDrizzle. Mostly cloudy.15 mph86%29.74 "Hg9 mi
1:51 PM52 °FDrizzle. Overcast.14 mph80%29.75 "Hg3 mi
12:51 PM54 °FDrizzle. Overcast.9 mph83%29.77 "Hg7 mi
11:51 AM58 °FOvercast.10 mph65%29.77 "Hg10 mi
10:51 AM54 °FOvercast.9 mph74%29.79 "Hg10 mi
9:51 AM54 °FLow clouds.10 mph74%29.78 "Hg10 mi
8:51 AM53 °FLow clouds.7 mph77%29.79 "Hg10 mi
7:51 AM51 °FLight rain. Mostly cloudy.9 mph87%29.80 "Hg9 mi
6:51 AM51 °FLight rain. Mostly cloudy.7 mph86%29.81 "Hg10 mi
5:51 AM51 °FLight rain. Mostly cloudy.6 mph85%29.80 "Hg9 mi
4:51 AM49 °FMostly cloudy.5 mph92%29.80 "Hg9 mi
3:51 AM50 °FMostly cloudy.7 mph95%29.80 "Hg7 mi
2:51 AM49 °FFog.6 mph97%29.80 "Hg5 mi
1:51 AM50 °FMostly cloudy.6 mph95%29.81 "Hg7 mi
Weather by CustomWeather, © 2016

See weather overviewHow to use our weather pages